Welcome to our new website - Welkom op onze vernieuwde website - Bienvenue sur notre nouveau site web - Willkommen auf unserer neuen Website
Check our progress frequently. Prüfen Sie unsere Fortschritte regelmäßig. Consultez notre progression fréquemment. Komt u straks nog eens terug

There is a communication problem. Go directly to the Meteoalarm site : www.meteoalarm.eu and check the Weather-warnings there .



Hej. Vi har købt ny vejrstation, og er ved at bygge en helt ny vejrside.
Kom snart tilbage og følg udviklingen.
Du kan også komme med kommentarer eller evt. ønsker via "Kontakt" i bunden.



Webcam more information Webcam


Rain radar more information rain snow radar


Visit our other weather sites:

Template documentation
and downloads

And another site



Select another period ( hide this area )

Units Period Custom range Directly to
Metric English Both
Daily Weekly Monthly Yearly
use both date-selectors for a custom range
previous Day
With this date

WeatherUnderground graphs for this period ( click here )


Daily Summary for Saturday 23 February 2019
Time Temp. ( °C ) Dew pt. ( °C ) Wind ( km/h ) from Gust ( km/h ) Pressure ( hPa ) Humid.( % ) Rainrate ( cm ) Solar ( W/m2 )
High1,2 -2,6 13,0 SW ( 192/502 ) 16,1 1045,3 81 - 9
Average0,6 -3,0 5,6 SW #30/89 10,1 1044,4 77 - 6 #3/89
Low-0,1 -3,6 -   3,2 1043,2 73 -  
Daily Tabular details for Saturday 23 February 2019
Time Temp. ( °C ) Dew pt. ( °C ) Wind ( km/h ) from Gust ( km/h ) Pressure ( hPa ) Humid.( % ) Rainrate ( cm ) Solar ( W/m2 )
00:04 0,8 -3,5   Calm 12,9 1044,9 73 - -
00:09 0,7 -3,6 6,4 SSE 9,7 1044,9 73 - -
00:14 0,6 -3,5 3,2 SSW 8,0 1044,9 74 - -
00:19 0,5 -3,6 6,4 South 8,0 1044,9 74 - -
00:24 0,6 -3,3 6,4 SSW 14,5 1044,9 75 - -
00:29 0,6 -3,3 7,9 SSE 8,0 1044,9 75 - -
00:34 0,6 -3,3 4,7 South 9,7 1044,9 75 - -
00:39 0,6 -3,3 1,4 SSE 9,7 1044,9 75 - -
00:44 0,6 -3,3 6,4 South 8,0 1044,9 75 - -
00:49 0,6 -3,3 4,7 SSW 9,7 1044,9 75 - -
00:54 0,7 -3,2 1,4 SSE 6,4 1044,9 75 - -
00:59 0,7 -3,2 6,4 South 6,4 1044,9 75 - -
01:04 0,8 -3,1 3,2 South 9,7 1044,9 75 - -
01:09 0,8 -3,1 1,4 SSW 9,7 1044,9 75 - -
01:14 0,8 -3,1 7,9 South 9,7 1044,9 75 - -
01:19 0,7 -3,0 6,4 SSE 14,5 1044,6 76 - -
01:24 0,6 -3,1 3,2 SSW 16,1 1044,6 76 - -
01:29 0,6 -3,1   Calm 8,0 1044,6 76 - -
01:34 0,6 -3,0 3,2 South 14,5 1044,9 77 - -
01:39 0,5 -3,1 11,1 SSE 14,5 1044,9 77 - -
01:44 0,6 -3,1 3,2 South 8,0 1044,9 76 - -
01:49 0,4 -3,2 7,9 SSE 9,7 1044,9 77 - -
01:54 0,4 -3,2 4,7 South 9,7 1044,9 77 - -
01:59 0,3 -3,3 3,2 SSE 8,0 1044,9 77 - -
02:04 0,3 -3,3 3,2 South 8,0 1044,9 77 - -
02:09 0,2 -3,4 3,2 South 4,8 1044,9 77 - -
02:14 0,1 -3,3 3,2 South 4,8 1044,9 78 - -
02:19 0,1 -3,3 3,2 South 4,8 1044,9 78 - -
02:24 0,0 -3,4 3,2 South 3,2 1044,9 78 - -
02:29 0,0 -3,4 1,4 SSE 6,4 1044,9 78 - -
02:34 0,0 -3,4   Calm 3,2 1045,3 78 - -
02:39 0,1 -3,3 3,2 SSE 6,4 1044,9 78 - -
02:44 0,1 -3,1 3,2 SSE 3,2 1044,9 79 - -
02:49 0,2 -3,0 4,7 South 9,7 1044,6 79 - -
02:54 0,3 -2,9 1,4 SSW 4,8 1044,6 79 - -
02:59 0,4 -3,0 4,7 South 9,7 1044,6 78 - -
03:04 0,4 -3,0 3,2 SW 8,0 1044,6 78 - -
03:09 0,6 -2,8 3,2 SSW 8,0 1044,6 78 - -
03:14 0,7 -2,7 6,4 South 12,9 1044,2 78 - -
03:19 0,8 -2,8 6,4 SW 9,7 1044,6 77 - -
03:24 0,8 -2,8 4,7 SSW 14,5 1044,6 77 - -
03:29 0,8 -2,8 7,9 SSW 11,3 1044,2 77 - -
03:34 0,8 -2,8 6,4 SW 9,7 1044,2 77 - -
03:39 0,9 -2,7 6,4 SW 12,9 1044,2 77 - -
03:44 0,9 -2,7 13,0 South 12,9 1044,2 77 - -
03:49 0,9 -2,7 11,1 SW 14,5 1044,2 77 - -
03:54 0,9 -2,7 11,1 SW 12,9 1044,2 77 - -
03:59 1,0 -2,6 6,4 SW 12,9 1044,2 77 - -
04:04 0,9 -2,7 11,1 SW 12,9 1044,2 77 - -
04:09 0,9 -2,7 7,9 SSW 16,1 1043,9 77 - -
04:14 1,0 -2,8 11,1 SSW 12,9 1044,2 76 - -
04:19 0,9 -2,9 9,7 SW 12,9 1044,2 76 - -
04:24 1,0 -2,8 6,4 SW 11,3 1044,2 76 - -
04:29 1,1 -2,7 6,4 SW 11,3 1044,6 76 - -
04:34 1,1 -2,7 6,4 WSW 14,5 1044,6 76 - -
04:39 1,1 -2,8 6,4 WSW 11,3 1044,6 75 - -
04:44 1,1 -2,8 11,1 SSW 14,5 1044,6 75 - -
04:49 1,2 -2,7 3,2 WSW 9,7 1044,6 75 - -
04:54 1,1 -3,0 3,2 SW 8,0 1044,6 74 - -
04:59 1,1 -2,8 6,4 SW 14,5 1044,2 75 - -
05:04 1,1 -2,8 4,7 SW 12,9 1044,6 75 - -
05:09 1,1 -2,8 9,7 WSW 14,5 1044,2 75 - -
05:14 1,1 -2,8 9,7 WSW 12,9 1044,2 75 - -
05:19 1,1 -2,8 6,4 SW 12,9 1044,2 75 - -
05:24 1,1 -2,8 7,9 SW 11,3 1044,2 75 - -
05:29 1,1 -2,8 6,4 SW 8,0 1044,2 75 - -
05:34 0,9 -3,0 11,1 SW 14,5 1044,2 75 - -
05:39 0,9 -3,0 7,9 SW 9,7 1044,2 75 - -
05:44 0,9 -2,9 4,7 SW 11,3 1044,6 76 - -
05:49 1,0 -2,8 4,7 SW 9,7 1044,2 76 - -
05:54 0,9 -2,9 4,7 South 11,3 1043,9 76 - -
05:59 0,9 -2,9 6,4 SW 11,3 1043,6 76 - -
06:04 0,8 -2,9 6,4 South 11,3 1043,2 76 - -
06:09 0,8 -2,9 6,4 WSW 14,5 1043,2 76 - -
06:14 0,7 -2,9 6,4 WSW 16,1 1043,2 77 - -
06:19 0,7 -2,9 4,7 SSW 9,7 1043,2 77 - -
06:24 0,6 -3,0 9,7 South 11,3 1043,2 77 - -
06:29 0,6 -3,0 4,7 SSW 11,3 1043,2 77 - -
06:34 0,5 -2,9 6,4 SW 9,7 1043,6 78 - -
06:39 0,4 -3,0 3,2 SW 6,4 1043,6 78 - -
06:44 0,3 -3,1 6,4 SW 6,4 1043,6 78 - -
06:49 0,3 -2,9 4,7 SW 9,7 1043,6 79 - -
06:54 0,2 -3,0 4,7 SW 6,4 1043,6 79 - -
06:59 0,2 -3,0 3,2 SW 6,4 1043,6 79 - -
07:04 0,1 -2,9 4,7 SW 4,8 1043,6 80 - -
07:09 0,1 -2,9 4,7 SW 6,4 1043,6 80 - -
07:14 -0,1 -3,1 7,9 SSW 8,0 1043,6 80 - 5
07:19 0,1 -2,8 6,4 SSW 9,7 1043,2 81 - 5
07:24 -0,1 -3,0 6,4 SSW 8,0 1043,2 81 - 9
Daily Summary for Saturday 23 February 2019
Time Temp. ( °C ) Dew pt. ( °C ) Wind ( km/h ) from Gust ( km/h ) Pressure ( hPa ) Humid.( % ) Rainrate ( cm ) Solar ( W/m2 )
High1,2 -2,6 13,0 SW ( 192/502 ) 16,1 1045,3 81 - 9
Average0,6 -3,0 5,6 SW #30/89 10,1 1044,4 77 - 6 #3/89
Low-0,1 -3,6 -   3,2 1043,2 73 -  
Daily Tabular details for Saturday 23 February 2019
Time Temp. ( °C ) Dew pt. ( °C ) Wind ( km/h ) from Gust ( km/h ) Pressure ( hPa ) Humid.( % ) Rainrate ( cm ) Solar ( W/m2 )
00:04 0,8 -3,5   Calm 12,9 1044,9 73 - -
00:09 0,7 -3,6 6,4 SSE 9,7 1044,9 73 - -
00:14 0,6 -3,5 3,2 SSW 8,0 1044,9 74 - -
00:19 0,5 -3,6 6,4 South 8,0 1044,9 74 - -
00:24 0,6 -3,3 6,4 SSW 14,5 1044,9 75 - -
00:29 0,6 -3,3 7,9 SSE 8,0 1044,9 75 - -
00:34 0,6 -3,3 4,7 South 9,7 1044,9 75 - -
00:39 0,6 -3,3 1,4 SSE 9,7 1044,9 75 - -
00:44 0,6 -3,3 6,4 South 8,0 1044,9 75 - -
00:49 0,6 -3,3 4,7 SSW 9,7 1044,9 75 - -
00:54 0,7 -3,2 1,4 SSE 6,4 1044,9 75 - -
00:59 0,7 -3,2 6,4 South 6,4 1044,9 75 - -
01:04 0,8 -3,1 3,2 South 9,7 1044,9 75 - -
01:09 0,8 -3,1 1,4 SSW 9,7 1044,9 75 - -
01:14 0,8 -3,1 7,9 South 9,7 1044,9 75 - -
01:19 0,7 -3,0 6,4 SSE 14,5 1044,6 76 - -
01:24 0,6 -3,1 3,2 SSW 16,1 1044,6 76 - -
01:29 0,6 -3,1   Calm 8,0 1044,6 76 - -
01:34 0,6 -3,0 3,2 South 14,5 1044,9 77 - -
01:39 0,5 -3,1 11,1 SSE 14,5 1044,9 77 - -
01:44 0,6 -3,1 3,2 South 8,0 1044,9 76 - -
01:49 0,4 -3,2 7,9 SSE 9,7 1044,9 77 - -
01:54 0,4 -3,2 4,7 South 9,7 1044,9 77 - -
01:59 0,3 -3,3 3,2 SSE 8,0 1044,9 77 - -
02:04 0,3 -3,3 3,2 South 8,0 1044,9 77 - -
02:09 0,2 -3,4 3,2 South 4,8 1044,9 77 - -
02:14 0,1 -3,3 3,2 South 4,8 1044,9 78 - -
02:19 0,1 -3,3 3,2 South 4,8 1044,9 78 - -
02:24 0,0 -3,4 3,2 South 3,2 1044,9 78 - -
02:29 0,0 -3,4 1,4 SSE 6,4 1044,9 78 - -
02:34 0,0 -3,4   Calm 3,2 1045,3 78 - -
02:39 0,1 -3,3 3,2 SSE 6,4 1044,9 78 - -
02:44 0,1 -3,1 3,2 SSE 3,2 1044,9 79 - -
02:49 0,2 -3,0 4,7 South 9,7 1044,6 79 - -
02:54 0,3 -2,9 1,4 SSW 4,8 1044,6 79 - -
02:59 0,4 -3,0 4,7 South 9,7 1044,6 78 - -
03:04 0,4 -3,0 3,2 SW 8,0 1044,6 78 - -
03:09 0,6 -2,8 3,2 SSW 8,0 1044,6 78 - -
03:14 0,7 -2,7 6,4 South 12,9 1044,2 78 - -
03:19 0,8 -2,8 6,4 SW 9,7 1044,6 77 - -
03:24 0,8 -2,8 4,7 SSW 14,5 1044,6 77 - -
03:29 0,8 -2,8 7,9 SSW 11,3 1044,2 77 - -
03:34 0,8 -2,8 6,4 SW 9,7 1044,2 77 - -
03:39 0,9 -2,7 6,4 SW 12,9 1044,2 77 - -
03:44 0,9 -2,7 13,0 South 12,9 1044,2 77 - -
03:49 0,9 -2,7 11,1 SW 14,5 1044,2 77 - -
03:54 0,9 -2,7 11,1 SW 12,9 1044,2 77 - -
03:59 1,0 -2,6 6,4 SW 12,9 1044,2 77 - -
04:04 0,9 -2,7 11,1 SW 12,9 1044,2 77 - -
04:09 0,9 -2,7 7,9 SSW 16,1 1043,9 77 - -
04:14 1,0 -2,8 11,1 SSW 12,9 1044,2 76 - -
04:19 0,9 -2,9 9,7 SW 12,9 1044,2 76 - -
04:24 1,0 -2,8 6,4 SW 11,3 1044,2 76 - -
04:29 1,1 -2,7 6,4 SW 11,3 1044,6 76 - -
04:34 1,1 -2,7 6,4 WSW 14,5 1044,6 76 - -
04:39 1,1 -2,8 6,4 WSW 11,3 1044,6 75 - -
04:44 1,1 -2,8 11,1 SSW 14,5 1044,6 75 - -
04:49 1,2 -2,7 3,2 WSW 9,7 1044,6 75 - -
04:54 1,1 -3,0 3,2 SW 8,0 1044,6 74 - -
04:59 1,1 -2,8 6,4 SW 14,5 1044,2 75 - -
05:04 1,1 -2,8 4,7 SW 12,9 1044,6 75 - -
05:09 1,1 -2,8 9,7 WSW 14,5 1044,2 75 - -
05:14 1,1 -2,8 9,7 WSW 12,9 1044,2 75 - -
05:19 1,1 -2,8 6,4 SW 12,9 1044,2 75 - -
05:24 1,1 -2,8 7,9 SW 11,3 1044,2 75 - -
05:29 1,1 -2,8 6,4 SW 8,0 1044,2 75 - -
05:34 0,9 -3,0 11,1 SW 14,5 1044,2 75 - -
05:39 0,9 -3,0 7,9 SW 9,7 1044,2 75 - -
05:44 0,9 -2,9 4,7 SW 11,3 1044,6 76 - -
05:49 1,0 -2,8 4,7 SW 9,7 1044,2 76 - -
05:54 0,9 -2,9 4,7 South 11,3 1043,9 76 - -
05:59 0,9 -2,9 6,4 SW 11,3 1043,6 76 - -
06:04 0,8 -2,9 6,4 South 11,3 1043,2 76 - -
06:09 0,8 -2,9 6,4 WSW 14,5 1043,2 76 - -
06:14 0,7 -2,9 6,4 WSW 16,1 1043,2 77 - -
06:19 0,7 -2,9 4,7 SSW 9,7 1043,2 77 - -
06:24 0,6 -3,0 9,7 South 11,3 1043,2 77 - -
06:29 0,6 -3,0 4,7 SSW 11,3 1043,2 77 - -
06:34 0,5 -2,9 6,4 SW 9,7 1043,6 78 - -
06:39 0,4 -3,0 3,2 SW 6,4 1043,6 78 - -
06:44 0,3 -3,1 6,4 SW 6,4 1043,6 78 - -
06:49 0,3 -2,9 4,7 SW 9,7 1043,6 79 - -
06:54 0,2 -3,0 4,7 SW 6,4 1043,6 79 - -
06:59 0,2 -3,0 3,2 SW 6,4 1043,6 79 - -
07:04 0,1 -2,9 4,7 SW 4,8 1043,6 80 - -
07:09 0,1 -2,9 4,7 SW 6,4 1043,6 80 - -
07:14 -0,1 -3,1 7,9 SSW 8,0 1043,6 80 - 5
07:19 0,1 -2,8 6,4 SSW 9,7 1043,2 81 - 5
07:24 -0,1 -3,0 6,4 SSW 8,0 1043,2 81 - 9

Download your copy of this data-set  here

Our weather-data as stored at Weather Underground. Script developed by Jim McMurry. Adapted for the template by Leuven-Template.eu

You find our weather info also at:

European Weather Network

Weather Underground

European Weather Network

Equipment we use:

Weather-station
Davis VP2

Weather-program
Weather Display

Davis VP2

Weather Display



Hej. Vi har købt ny vejrstation, og er ved at bygge en helt ny vejrside.
Kom snart tilbage og følg udviklingen.
Du kan også komme med kommentarer eller evt. ønsker via "Kontakt" i bunden.